EN

Hourly Weather Altenberg

Today, 19 January, Tuesday

Time Temperature Precipitation Wind Pressure Humidity
00:00 -5°C° 0.3 mm 5 mps 706 mmHg 95%
01:00 -5°C° 0.3 mm 5 mps 706 mmHg 95%
02:00 -5°C° 0.1 mm 5 mps 706 mmHg 94%
03:00 -4°C° 0.1 mm 4 mps 706 mmHg 93%
04:00 -4°C° 0.1 mm 4 mps 705 mmHg 92%
05:00 -4°C° 0 mm 4 mps 705 mmHg 92%
06:00 -4°C° 0 mm 4 mps 705 mmHg 91%
07:00 -4°C° 0 mm 4 mps 704 mmHg 90%
08:00 -4°C° 0 mm 4 mps 704 mmHg 89%
09:00 -4°C° 0 mm 4 mps 704 mmHg 88%
10:00 -4°C° 0 mm 4 mps 704 mmHg 87%
11:00 -3°C° 0.1 mm 4 mps 703 mmHg 89%
12:00 -3°C° 0.1 mm 4 mps 702 mmHg 91%
13:00 -4°C° 0.1 mm 5 mps 701 mmHg 94%
14:00 -4°C° 1.4 mm 5 mps 701 mmHg 95%
15:00 -4°C° 1.4 mm 5 mps 700 mmHg 96%
16:00 -4°C° 1.4 mm 5 mps 699 mmHg 97%
17:00 -2°C° 0.8 mm 5 mps 699 mmHg 97%
18:00 -2°C° 0.8 mm 5 mps 699 mmHg 97%
19:00 -1°C° 0.8 mm 5 mps 699 mmHg 97%
20:00 -1°C° 0 mm 5 mps 699 mmHg 96%
21:00 -1°C° 0 mm 6 mps 699 mmHg 96%
22:00 -1°C° 0 mm 6 mps 699 mmHg 95%
23:00 -1°C° 0 mm 5 mps 699 mmHg 93%

Tomorrow, 20 January, Wednesday

Time Temperature Precipitation Wind Pressure Humidity
00:00 -1°C° 0 mm 5 mps 700 mmHg 91%
01:00 -1°C° 0 mm 4 mps 700 mmHg 90%
02:00 -2°C° 0 mm 4 mps 700 mmHg 88%
03:00 -2°C° 0 mm 4 mps 699 mmHg 86%
04:00 -2°C° 0 mm 4 mps 699 mmHg 85%
05:00 -2°C° 0 mm 4 mps 699 mmHg 83%
06:00 -2°C° 0 mm 4 mps 699 mmHg 82%
07:00 -3°C° 0 mm 4 mps 699 mmHg 81%
08:00 -2°C° 0 mm 4 mps 699 mmHg 81%
09:00 -2°C° 0 mm 4 mps 699 mmHg 81%
10:00 -2°C° 0 mm 4 mps 699 mmHg 81%
11:00 -1°C° 0 mm 4 mps 699 mmHg 81%
12:00 -1°C° 0 mm 4 mps 699 mmHg 82%
13:00 0°C° 0 mm 4 mps 699 mmHg 83%
14:00 -1°C° 0 mm 4 mps 698 mmHg 82%
15:00 -1°C° 0 mm 4 mps 698 mmHg 82%
16:00 0°C° 0 mm 3 mps 698 mmHg 81%
17:00 0°C° 0 mm 3 mps 698 mmHg 81%
18:00 -1°C° 0 mm 3 mps 698 mmHg 80%
19:00 -1°C° 0 mm 3 mps 698 mmHg 80%
20:00 -1°C° 0 mm 3 mps 697 mmHg 78%
21:00 -1°C° 0 mm 3 mps 697 mmHg 75%
22:00 -1°C° 0 mm 3 mps 697 mmHg 73%
23:00 -1°C° 0 mm 3 mps 697 mmHg 74%

Day after tomorrow, 21 January, Thursday

Time Temperature Precipitation Wind Pressure Humidity
00:00 -1°C° 0 mm 3 mps 697 mmHg 75%
01:00 -2°C° 0 mm 3 mps 697 mmHg 76%
02:00 -2°C° 0 mm 3 mps 696 mmHg 78%
03:00 -4°C° 0 mm 3 mps 696 mmHg 81%
04:00 -5°C° 0 mm 3 mps 695 mmHg 83%
05:00 -5°C° 0 mm 3 mps 695 mmHg 86%
06:00 -6°C° 0 mm 3 mps 695 mmHg 88%
07:00 -6°C° 0 mm 3 mps 695 mmHg 91%
08:00 -5°C° 0 mm 4 mps 695 mmHg 90%
09:00 -5°C° 0 mm 4 mps 695 mmHg 89%
10:00 -4°C° 0 mm 4 mps 695 mmHg 89%
11:00 -4°C° 0 mm 4 mps 695 mmHg 88%
12:00 -3°C° 0 mm 4 mps 695 mmHg 88%
13:00 -3°C° 0 mm 4 mps 695 mmHg 87%
14:00 -3°C° 0 mm 4 mps 694 mmHg 87%
15:00 -2°C° 0 mm 4 mps 694 mmHg 87%
16:00 -2°C° 0 mm 4 mps 694 mmHg 88%
17:00 -2°C° 0 mm 4 mps 694 mmHg 87%
18:00 -3°C° 0 mm 4 mps 694 mmHg 87%
19:00 -3°C° 0 mm 4 mps 694 mmHg 87%
20:00 -3°C° 0 mm 4 mps 693 mmHg 88%
21:00 -2°C° 0 mm 3 mps 693 mmHg 89%
22:00 -1°C° 0 mm 3 mps 693 mmHg 90%
23:00 -2°C° 0 mm 3 mps 692 mmHg 89%

22 January, Friday

Time Temperature Precipitation Wind Pressure Humidity
00:00 -2°C° 0 mm 3 mps 692 mmHg 87%
01:00 -4°C° 0 mm 3 mps 691 mmHg 85%
02:00 -4°C° 0 mm 3 mps 690 mmHg 86%
03:00 -4°C° 0 mm 3 mps 690 mmHg 87%
04:00 -5°C° 0 mm 3 mps 689 mmHg 88%
05:00 -4°C° 0 mm 3 mps 689 mmHg 88%
06:00 -4°C° 0 mm 3 mps 689 mmHg 89%
07:00 -4°C° 0 mm 3 mps 689 mmHg 89%
08:00 -2°C° 0 mm 3 mps 689 mmHg 89%
09:00 -2°C° 0 mm 3 mps 689 mmHg 89%
10:00 -1°C° 0 mm 3 mps 689 mmHg 89%
11:00 -1°C° 0.1 mm 2 mps 690 mmHg 91%
12:00 -1°C° 0.1 mm 2 mps 690 mmHg 93%
13:00 +1°C° 0.1 mm 2 mps 691 mmHg 95%
14:00 -1°C° 0.1 mm 2 mps 691 mmHg 95%
15:00 -1°C° 0.1 mm 3 mps 692 mmHg 95%
16:00 -1°C° 0.1 mm 3 mps 692 mmHg 95%
17:00 -1°C° 0 mm 3 mps 693 mmHg 92%
18:00 -2°C° 0 mm 3 mps 693 mmHg 89%
19:00 -2°C° 0 mm 3 mps 694 mmHg 86%
20:00 -4°C° 0 mm 3 mps 694 mmHg 86%
21:00 -4°C° 0 mm 3 mps 695 mmHg 85%
22:00 -4°C° 0 mm 3 mps 695 mmHg 85%
23:00 -4°C° 0 mm 3 mps 695 mmHg 86%

23 January, Saturday

Time Temperature Precipitation Wind Pressure Humidity
00:00 -3°C° 0 mm 2 mps 695 mmHg 87%
01:00 -3°C° 0 mm 2 mps 695 mmHg 88%
02:00 -4°C° 0 mm 2 mps 695 mmHg 89%
03:00 -4°C° 0 mm 2 mps 695 mmHg 89%
04:00 -4°C° 0 mm 2 mps 695 mmHg 90%
05:00 -4°C° 0 mm 2 mps 695 mmHg 90%
06:00 -4°C° 0 mm 2 mps 695 mmHg 90%
07:00 -4°C° 0 mm 2 mps 695 mmHg 90%
08:00 -4°C° 0 mm 2 mps 695 mmHg 90%
09:00 -3°C° 0 mm 2 mps 695 mmHg 89%
10:00 -3°C° 0 mm 2 mps 695 mmHg 89%
11:00 -2°C° 0 mm 3 mps 695 mmHg 88%
12:00 -2°C° 0 mm 3 mps 695 mmHg 88%
13:00 -1°C° 0 mm 3 mps 694 mmHg 87%
14:00 -2°C° 0 mm 3 mps 694 mmHg 88%
15:00 -2°C° 0 mm 3 mps 693 mmHg 89%
16:00 -2°C° 0 mm 3 mps 692 mmHg 89%
17:00 -4°C° 0 mm 4 mps 692 mmHg 90%
18:00 -4°C° 0 mm 4 mps 691 mmHg 90%
19:00 -4°C° 0 mm 4 mps 691 mmHg 90%
20:00 -5°C° 0 mm 5 mps 690 mmHg 89%
21:00 -5°C° 0 mm 5 mps 690 mmHg 88%
22:00 -5°C° 0 mm 5 mps 689 mmHg 87%
23:00 -5°C° 0.1 mm 5 mps 689 mmHg 87%

24 January, Sunday

Time Temperature Precipitation Wind Pressure Humidity
00:00 -5°C° 0.1 mm 5 mps 689 mmHg 86%
01:00 -5°C° 0.1 mm 5 mps 689 mmHg 86%
02:00 -5°C° 0 mm 5 mps 688 mmHg 85%
03:00 -5°C° 0 mm 5 mps 688 mmHg 85%
04:00 -6°C° 0 mm 5 mps 688 mmHg 84%
05:00 -6°C° 0 mm 5 mps 688 mmHg 85%
06:00 -6°C° 0 mm 5 mps 688 mmHg 86%
07:00 -6°C° 0 mm 5 mps 688 mmHg 86%
08:00 -6°C° 0.3 mm 6 mps 689 mmHg 88%
09:00 -5°C° 0.3 mm 6 mps 689 mmHg 89%
10:00 -6°C° 0.3 mm 7 mps 690 mmHg 91%
11:00 -4°C° 0.2 mm 7 mps 690 mmHg 88%
12:00 -5°C° 0.2 mm 8 mps 691 mmHg 85%
13:00 -5°C° 0.2 mm 8 mps 692 mmHg 82%
14:00 -4°C° 0 mm 7 mps 692 mmHg 82%
15:00 -4°C° 0 mm 7 mps 693 mmHg 82%
16:00 -4°C° 0 mm 6 mps 693 mmHg 82%
17:00 -5°C° 0 mm 6 mps 694 mmHg 82%
18:00 -6°C° 0 mm 5 mps 694 mmHg 82%
19:00 -6°C° 0 mm 5 mps 695 mmHg 83%
20:00 -7°C° 0 mm 4 mps 695 mmHg 84%
21:00 -7°C° 0 mm 4 mps 695 mmHg 86%
22:00 -7°C° 0 mm 3 mps 695 mmHg 87%
23:00 -7°C° 0 mm 3 mps 695 mmHg 86%
Show more